Idabel, OK

2:58 PM CDT on March 27, 2017 (GMT -0500)
Idabel

Weather History for K4O4 - August, 2013

Change the Weather History Date:

Thursday, August 1, 2013

  Actual Average (KPRX) Record (KPRX)
Temperature  
Mean Temperature 85 °F -  
Max Temperature 95 °F 91 °F 107 °F (2011)
Min Temperature 75 °F 70 °F 66 °F (2014)
Cooling Degree Days 20    
Growing Degree Days 35 (Base 50)    
Moisture  
Dew Point 72 °F    
Average Humidity 70    
Maximum Humidity 94    
Minimum Humidity 47    
Precipitation  
Precipitation 0.00 in - - ()
Sea Level Pressure  
Sea Level Pressure 30.00 in    
Wind  
Wind Speed 4 mph (East)    
Max Wind Speed 10 mph    
Max Gust Speed -    
Visibility 8 miles    
Events      
Averages and records for this station are not official NWS values.
T = Trace of Precipitation, MM = Missing Value Source: NWS Daily Summary

Daily Weather History Graph

Daily Weather History Graph

Search for Another Location

Airport or City:

Trip Planner

Search our weather history database for the weather conditions in past years. The results will help you decide how hot, cold, wet, or windy it might be!

Date:

Astronomy

Aug. 01, 2013 Rise Set
Actual Time 6:31 AM CDT 8:19 PM CDT
Civil Twilight 6:03 AM CDT 8:47 PM CDT
Nautical Twilight 5:30 AM CDT 9:19 PM CDT
Astronomical Twilight 4:55 AM CDT 9:54 PM CDT
Moon 2:09 AM CDT (8/1) 4:27 PM CDT (8/1)
Length of Visible Light 14h 43m
Length of Day
13h 48m
Waning Crescent, 23% of the Moon is Illuminated
Aug 1
Waning Crescent
Aug 6
New
Aug 14
First Quarter
Aug 20
Full
Aug 28
Last Quarter

Hourly Weather History & Observations

Time (CDT) Temp. Heat Index Dew Point Humidity Pressure Visibility Wind Dir Wind Speed Gust Speed Precip Events Conditions
12:15 AM 78.8 °F - 75.2 °F 89% 30.01 in 7.0 mi Calm Calm - N/A   Clear
12:35 AM 78.8 °F - 73.4 °F 83% 30.00 in 7.0 mi Calm Calm - N/A   Clear
12:55 AM 78.8 °F - 73.4 °F 83% 29.99 in 7.0 mi Calm Calm - N/A   Clear
1:15 AM 77.0 °F - 73.4 °F 89% 29.99 in 5.0 mi Calm Calm - N/A   Clear
1:35 AM 77.0 °F - 73.4 °F 89% 29.99 in 4.0 mi Calm Calm - N/A   Clear
1:55 AM 77.0 °F - 73.4 °F 89% 29.99 in 5.0 mi East 4.6 mph - N/A   Clear
2:15 AM 77.0 °F - 73.4 °F 89% 29.99 in 4.0 mi ENE 3.5 mph - N/A   Clear
2:35 AM 77.0 °F - 73.4 °F 89% 29.99 in 7.0 mi ESE 4.6 mph - N/A   Clear
2:55 AM 77.0 °F - 73.4 °F 89% 29.99 in 7.0 mi East 4.6 mph - N/A   Clear
3:15 AM 77.0 °F - 73.4 °F 89% 29.99 in 7.0 mi East 4.6 mph - N/A   Scattered Clouds
3:35 AM 77.0 °F - 73.4 °F 89% 29.99 in 7.0 mi East 4.6 mph - N/A   Clear
3:55 AM 77.0 °F - 73.4 °F 89% 29.99 in 7.0 mi ESE 3.5 mph - N/A   Scattered Clouds
4:15 AM 77.0 °F - 73.4 °F 89% 29.99 in 7.0 mi ENE 3.5 mph - N/A   Scattered Clouds
4:35 AM 77.0 °F - 73.4 °F 89% 29.99 in 7.0 mi Calm Calm - N/A   Scattered Clouds
4:56 AM 77.0 °F - 73.4 °F 89% 30.00 in 5.0 mi Calm Calm - N/A   Clear
5:15 AM 75.2 °F - 71.6 °F 89% 30.00 in 4.0 mi NE 3.5 mph - N/A   Clear
5:35 AM 75.2 °F - 73.4 °F 94% 30.01 in 5.0 mi ENE 3.5 mph - N/A   Clear
5:55 AM 75.2 °F - 73.4 °F 94% 30.01 in 4.0 mi ENE 3.5 mph - N/A   Clear
6:15 AM 75.2 °F - 71.6 °F 89% 30.02 in 4.0 mi NE 3.5 mph - N/A   Clear
6:35 AM 75.2 °F - 71.6 °F 89% 30.02 in 4.0 mi NE 4.6 mph - N/A   Clear
6:55 AM 75.2 °F - 73.4 °F 94% 30.03 in 4.0 mi Calm Calm - N/A   Clear
7:15 AM 75.2 °F - 73.4 °F 94% 30.03 in 5.0 mi NE 3.5 mph - N/A   Clear
7:35 AM 77.0 °F - 73.4 °F 89% 30.03 in 7.0 mi ENE 4.6 mph - N/A   Clear
7:55 AM 77.0 °F - 73.4 °F 89% 30.03 in 7.0 mi ENE 3.5 mph - N/A   Clear
8:15 AM 77.0 °F - 73.4 °F 89% 30.04 in 7.0 mi ENE 5.8 mph - N/A   Clear
8:35 AM 78.8 °F - 73.4 °F 83% 30.04 in 10.0 mi ENE 4.6 mph - N/A   Clear
8:55 AM 78.8 °F - 73.4 °F 83% 30.04 in 10.0 mi East 5.8 mph - N/A   Clear
9:15 AM 82.4 °F 88.2 °F 73.4 °F 74% 30.04 in 10.0 mi East 5.8 mph - N/A   Clear
9:35 AM 82.4 °F 88.2 °F 73.4 °F 74% 30.04 in 10.0 mi ENE 4.6 mph - N/A   Clear
9:55 AM 84.2 °F 89.6 °F 71.6 °F 66% 30.04 in 10.0 mi East 5.8 mph - N/A   Clear
10:15 AM 86.0 °F 91.8 °F 71.6 °F 62% 30.04 in 10.0 mi ENE 5.8 mph - N/A   Clear
10:35 AM 86.0 °F 91.8 °F 71.6 °F 62% 30.04 in 10.0 mi East 5.8 mph - N/A   Clear
10:55 AM 87.8 °F 95.6 °F 73.4 °F 62% 30.04 in 10.0 mi East 5.8 mph - N/A   Clear
11:15 AM 87.8 °F 95.6 °F 73.4 °F 62% 30.04 in 10.0 mi ENE 6.9 mph - N/A   Clear
11:35 AM 89.6 °F 98.2 °F 73.4 °F 59% 30.04 in 10.0 mi ENE 5.8 mph - N/A   Clear
11:55 AM 89.6 °F 96.2 °F 71.6 °F 55% 30.04 in 10.0 mi ENE 6.9 mph - N/A   Clear
12:15 PM 89.6 °F 98.2 °F 73.4 °F 59% 30.04 in 10.0 mi East 5.8 mph - N/A   Clear
12:35 PM 91.4 °F 100.1 °F 73.4 °F 55% 30.03 in 10.0 mi East 6.9 mph - N/A   Clear
12:55 PM 91.4 °F 100.1 °F 73.4 °F 55% 30.03 in 7.0 mi ENE 3.5 mph - N/A   Scattered Clouds
1:15 PM 91.4 °F 100.1 °F 73.4 °F 55% 30.03 in 10.0 mi East 8.1 mph - N/A   Scattered Clouds
1:35 PM 91.4 °F 100.1 °F 73.4 °F 55% 30.02 in 10.0 mi East 8.1 mph - N/A   Scattered Clouds
1:55 PM 93.2 °F 102.4 °F 73.4 °F 52% 30.02 in 7.0 mi ENE 6.9 mph - N/A   Scattered Clouds
2:15 PM 93.2 °F 100.5 °F 71.6 °F 49% 30.02 in 10.0 mi East 10.4 mph - N/A   Scattered Clouds
2:35 PM 93.2 °F 100.5 °F 71.6 °F 49% 30.02 in 10.0 mi East 8.1 mph - N/A   Clear
2:55 PM 95.0 °F 103.2 °F 71.6 °F 47% 30.01 in 10.0 mi ENE 8.1 mph - N/A   Clear
3:15 PM 95.0 °F 103.2 °F 71.6 °F 47% 30.01 in 10.0 mi East 5.8 mph - N/A   Scattered Clouds
3:35 PM 95.0 °F 104.5 °F 73.4 °F 49% 30.00 in 10.0 mi ESE 8.1 mph - N/A   Clear
3:55 PM 95.0 °F 104.5 °F 73.4 °F 49% 30.00 in 10.0 mi East 9.2 mph - N/A   Scattered Clouds
4:15 PM 95.0 °F 103.2 °F 71.6 °F 47% 29.99 in 10.0 mi ESE 6.9 mph - N/A   Scattered Clouds
4:35 PM 95.0 °F 103.2 °F 71.6 °F 47% 29.98 in 10.0 mi East 8.1 mph - N/A   Scattered Clouds
4:55 PM 95.0 °F 103.2 °F 71.6 °F 47% 29.98 in 10.0 mi East 6.9 mph - N/A   Clear
5:15 PM 95.0 °F 103.2 °F 71.6 °F 47% 29.97 in 10.0 mi ESE 6.9 mph - N/A   Clear
5:35 PM 95.0 °F 103.2 °F 71.6 °F 47% 29.97 in 10.0 mi East 6.9 mph - N/A   Clear
5:55 PM 95.0 °F 103.2 °F 71.6 °F 47% 29.96 in 10.0 mi ESE 6.9 mph - N/A   Clear
6:15 PM 93.2 °F 100.5 °F 71.6 °F 49% 29.95 in 10.0 mi East 6.9 mph - N/A   Clear
6:35 PM 93.2 °F 100.5 °F 71.6 °F 49% 29.95 in 10.0 mi East 8.1 mph - N/A   Clear
6:55 PM 91.4 °F 98.4 °F 71.6 °F 52% 29.95 in 10.0 mi ESE 8.1 mph - N/A   Clear
7:15 PM 89.6 °F 96.2 °F 71.6 °F 55% 29.96 in 10.0 mi East 8.1 mph - N/A   Clear
7:35 PM 89.6 °F 96.2 °F 71.6 °F 55% 29.96 in 10.0 mi ESE 6.9 mph - N/A   Clear
7:55 PM 87.8 °F 93.8 °F 71.6 °F 58% 29.97 in 10.0 mi ESE 5.8 mph - N/A   Clear
8:15 PM 86.0 °F 91.8 °F 71.6 °F 62% 29.97 in 10.0 mi SE 4.6 mph - N/A   Clear
8:35 PM 82.4 °F 87.2 °F 71.6 °F 70% 29.97 in 10.0 mi SE 4.6 mph - N/A   Clear
8:55 PM 82.4 °F 87.2 °F 71.6 °F 70% 29.97 in 10.0 mi SE 4.6 mph - N/A   Clear
9:15 PM 80.6 °F 84.6 °F 71.6 °F 74% 29.97 in 10.0 mi ESE 5.8 mph - N/A   Clear
9:35 PM 80.6 °F 84.6 °F 71.6 °F 74% 29.97 in 10.0 mi ESE 5.8 mph - N/A   Clear
9:55 PM 80.6 °F 84.6 °F 71.6 °F 74% 29.98 in 10.0 mi ESE 4.6 mph - N/A   Clear
10:15 PM 78.8 °F - 71.6 °F 78% 29.98 in 10.0 mi ESE 6.9 mph - N/A   Clear
10:35 PM 78.8 °F - 69.8 °F 74% 29.98 in 10.0 mi SE 5.8 mph - N/A   Clear
10:55 PM 78.8 °F - 69.8 °F 74% 29.98 in 10.0 mi ESE 9.2 mph - N/A   Clear
11:15 PM 78.8 °F - 69.8 °F 74% 29.98 in 10.0 mi SE 6.9 mph - N/A   Clear
11:35 PM 78.8 °F - 69.8 °F 74% 29.98 in 10.0 mi ESE 8.1 mph - N/A   Clear
11:55 PM 78.8 °F - 69.8 °F 74% 29.98 in 10.0 mi ESE 6.9 mph - N/A   Clear